QFA540 YSSY-YBBN

Flight info

Callsign QFA540
Flight time N/A
Altitude 37000
Route OLSEM Y193 BANDA H252 BN
Aircraft A21N/M-SDE3FGHIRWY/LB1

Departure

Time 2026-04-20 07:23
Airport Sydney Kingsford Smith International Airport (YSSY)

Arrival

Time N/A
Airport Brisbane International Airport (YBBN)
Time Latitude Longitude Altitude Speed Heading
2026-04-20 06:27 -33.93153 151.17914 28 ft 0 kts 191°
2026-04-20 07:02 -33.93141 151.17917 28 ft 2 kts 190°
2026-04-20 07:02 -33.93126 151.17920 28 ft 2 kts 189°
2026-04-20 07:03 -33.93111 151.17923 28 ft 2 kts 188°
2026-04-20 07:03 -33.93097 151.17929 28 ft 2 kts 222°
2026-04-20 07:03 -33.93088 151.17943 28 ft 2 kts 250°
2026-04-20 07:03 -33.93086 151.17961 28 ft 2 kts 278°
2026-04-20 07:04 -33.93090 151.17978 28 ft 2 kts 282°
2026-04-20 07:04 -33.93092 151.17996 28 ft 1 kts 280°
2026-04-20 07:04 -33.93092 151.17999 28 ft 0 kts 281°
2026-04-20 07:08 -33.93092 151.17998 28 ft 0 kts 280°
2026-04-20 07:08 -33.93090 151.17987 28 ft 1 kts 280°
2026-04-20 07:08 -33.93087 151.17964 28 ft 4 kts 279°
2026-04-20 07:09 -33.93082 151.17926 28 ft 5 kts 279°
2026-04-20 07:09 -33.93075 151.17874 28 ft 7 kts 280°
2026-04-20 07:09 -33.93065 151.17806 28 ft 9 kts 279°
2026-04-20 07:09 -33.93042 151.17723 28 ft 11 kts 299°
2026-04-20 07:10 -33.93013 151.17627 28 ft 13 kts 280°
2026-04-20 07:10 -33.93014 151.17554 28 ft 8 kts 234°
2026-04-20 07:10 -33.93077 151.17522 28 ft 11 kts 189°
2026-04-20 07:10 -33.93162 151.17535 28 ft 13 kts 169°
2026-04-20 07:11 -33.93257 151.17558 28 ft 14 kts 169°
2026-04-20 07:11 -33.93366 151.17584 28 ft 13 kts 169°
2026-04-20 07:11 -33.93465 151.17584 28 ft 15 kts 180°
2026-04-20 07:11 -33.93568 151.17606 28 ft 14 kts 169°
2026-04-20 07:12 -33.93670 151.17650 28 ft 16 kts 150°
2026-04-20 07:12 -33.93782 151.17696 28 ft 17 kts 170°
2026-04-20 07:12 -33.93856 151.17744 28 ft 12 kts 127°
2026-04-20 07:12 -33.93931 151.17787 28 ft 12 kts 169°
2026-04-20 07:13 -33.94016 151.17806 28 ft 12 kts 168°
2026-04-20 07:13 -33.94105 151.17830 28 ft 13 kts 166°
2026-04-20 07:13 -33.94204 151.17857 28 ft 14 kts 167°
2026-04-20 07:13 -33.94309 151.17883 28 ft 15 kts 170°
2026-04-20 07:14 -33.94420 151.17912 28 ft 14 kts 176°
2026-04-20 07:14 -33.94506 151.17879 28 ft 13 kts 186°
2026-04-20 07:14 -33.94600 151.17902 28 ft 14 kts 168°
2026-04-20 07:14 -33.94701 151.17929 28 ft 15 kts 165°
2026-04-20 07:15 -33.94809 151.17956 28 ft 16 kts 170°
2026-04-20 07:15 -33.94922 151.17986 28 ft 16 kts 168°
2026-04-20 07:15 -33.95027 151.18013 28 ft 7 kts 168°
2026-04-20 07:15 -33.95033 151.18015 28 ft 0 kts 168°
2026-04-20 07:16 -33.95038 151.18016 28 ft 2 kts 168°
2026-04-20 07:16 -33.95066 151.18024 28 ft 6 kts 167°
2026-04-20 07:17 -33.95103 151.18079 28 ft 11 kts 91°
2026-04-20 07:17 -33.95088 151.18178 28 ft 12 kts 79°
2026-04-20 07:17 -33.95071 151.18275 28 ft 12 kts 77°
2026-04-20 07:17 -33.95052 151.18381 28 ft 13 kts 77°
2026-04-20 07:18 -33.95030 151.18503 28 ft 16 kts 78°
2026-04-20 07:18 -33.95004 151.18640 28 ft 14 kts 77°
2026-04-20 07:18 -33.94992 151.18706 28 ft 0 kts 78°
2026-04-20 07:21 -33.94992 151.18709 28 ft 1 kts 78°
2026-04-20 07:21 -33.94988 151.18730 28 ft 4 kts 78°
2026-04-20 07:21 -33.94983 151.18791 28 ft 11 kts 96°
2026-04-20 07:22 -33.95063 151.18857 28 ft 20 kts 170°
2026-04-20 07:22 -33.95335 151.18926 28 ft 73 kts 170°
2026-04-20 07:22 -33.96066 151.19116 28 ft 137 kts 168°
2026-04-20 07:22 -33.97098 151.19389 403 ft 156 kts 169°
2026-04-20 07:23 -33.98124 151.19768 1101 ft 159 kts 153°
2026-04-20 07:23 -33.98894 151.20686 1828 ft 164 kts 128°
2026-04-20 07:23 -33.99489 151.21860 2520 ft 169 kts 125°
2026-04-20 07:23 -34.00108 151.23106 3088 ft 180 kts 125°
2026-04-20 07:24 -34.00843 151.24391 3670 ft 190 kts 134°
2026-04-20 07:24 -34.01839 151.25499 4212 ft 204 kts 142°
2026-04-20 07:24 -34.02946 151.26648 4723 ft 222 kts 142°
2026-04-20 07:24 -34.04166 151.27882 5310 ft 236 kts 143°
2026-04-20 07:25 -34.05484 151.29153 5871 ft 251 kts 144°
2026-04-20 07:25 -34.06864 151.30478 6642 ft 257 kts 144°
2026-04-20 07:25 -34.08266 151.31836 7505 ft 260 kts 144°
2026-04-20 07:25 -34.09669 151.33200 8325 ft 263 kts 144°
2026-04-20 07:26 -34.10984 151.34738 9094 ft 271 kts 128°
2026-04-20 07:26 -34.11679 151.36876 9851 ft 283 kts 102°
2026-04-20 07:26 -34.11544 151.39269 10519 ft 299 kts 78°
2026-04-20 07:26 -34.10498 151.41505 10934 ft 323 kts 52°
2026-04-20 07:27 -34.08946 151.43497 11600 ft 329 kts 50°
2026-04-20 07:27 -34.07351 151.45500 12321 ft 333 kts 46°
2026-04-20 07:27 -34.05447 151.47108 12993 ft 342 kts 29°
2026-04-20 07:27 -34.03193 151.48086 13667 ft 347 kts 17°
2026-04-20 07:28 -34.00838 151.48833 14327 ft 351 kts 16°
2026-04-20 07:28 -33.98477 151.49551 14968 ft 355 kts 16°
2026-04-20 07:28 -33.96069 151.50301 15601 ft 358 kts 16°
2026-04-20 07:28 -33.93660 151.51071 16230 ft 361 kts 17°
2026-04-20 07:29 -33.91212 151.51868 16836 ft 365 kts 17°
2026-04-20 07:29 -33.88762 151.52669 17436 ft 368 kts 17°
2026-04-20 07:29 -33.86284 151.53479 18022 ft 371 kts 17°
2026-04-20 07:29 -33.83810 151.54289 18575 ft 374 kts 17°
2026-04-20 07:30 -33.81280 151.55116 19099 ft 378 kts 17°
2026-04-20 07:30 -33.78730 151.55948 19625 ft 382 kts 17°
2026-04-20 07:30 -33.76152 151.56789 20122 ft 386 kts 17°
2026-04-20 07:30 -33.73561 151.57632 20621 ft 389 kts 17°
2026-04-20 07:31 -33.70919 151.58491 21129 ft 392 kts 17°
2026-04-20 07:31 -33.68298 151.59345 21606 ft 396 kts 17°
2026-04-20 07:31 -33.65673 151.60345 22074 ft 398 kts 24°
2026-04-20 07:31 -33.63141 151.61768 22558 ft 399 kts 32°
2026-04-20 07:32 -33.60801 151.63501 23000 ft 401 kts 37°
2026-04-20 07:32 -33.58481 151.65356 23439 ft 404 kts 37°
2026-04-20 07:32 -33.56113 151.67261 23889 ft 407 kts 37°
2026-04-20 07:32 -33.53766 151.69130 24302 ft 410 kts 37°
2026-04-20 07:33 -33.51364 151.70982 24714 ft 415 kts 33°
2026-04-20 07:33 -33.48772 151.72557 25122 ft 420 kts 25°
2026-04-20 07:33 -33.46015 151.73729 25506 ft 425 kts 18°
2026-04-20 07:33 -33.43122 151.74675 25892 ft 429 kts 16°
2026-04-20 07:34 -33.40250 151.75558 26249 ft 432 kts 16°
2026-04-20 07:34 -33.37331 151.76469 26614 ft 436 kts 17°
2026-04-20 07:34 -33.34391 151.77408 26962 ft 439 kts 17°
2026-04-20 07:35 -33.28451 151.79326 27665 ft 445 kts 17°
2026-04-20 07:35 -33.25438 151.80298 28009 ft 448 kts 17°
2026-04-20 07:35 -33.22418 151.81271 28345 ft 451 kts 17°
2026-04-20 07:35 -33.19379 151.82251 28687 ft 454 kts 17°
2026-04-20 07:36 -33.16340 151.83229 29016 ft 457 kts 17°
2026-04-20 07:36 -33.13229 151.84232 29339 ft 460 kts 17°
2026-04-20 07:36 -33.10164 151.85217 29753 ft 460 kts 17°
2026-04-20 07:36 -33.07035 151.86221 30191 ft 461 kts 17°
2026-04-20 07:37 -33.03943 151.87215 30528 ft 463 kts 17°
2026-04-20 07:37 -33.00784 151.88229 30838 ft 466 kts 17°
2026-04-20 07:37 -32.97660 151.89232 31139 ft 468 kts 17°
2026-04-20 07:37 -32.94527 151.90236 31456 ft 471 kts 17°
2026-04-20 07:38 -32.91338 151.91257 31761 ft 473 kts 17°
2026-04-20 07:38 -32.88157 151.92273 32040 ft 476 kts 17°
2026-04-20 07:38 -32.84925 151.93306 32303 ft 478 kts 17°
2026-04-20 07:38 -32.81723 151.94328 32560 ft 481 kts 17°
2026-04-20 07:39 -32.78445 151.95375 32803 ft 484 kts 17°
2026-04-20 07:39 -32.75200 151.96410 33059 ft 486 kts 18°
2026-04-20 07:39 -32.71952 151.97447 33302 ft 488 kts 17°
2026-04-20 07:39 -32.68653 151.98497 33542 ft 491 kts 17°
2026-04-20 07:40 -32.65322 151.99556 33796 ft 493 kts 17°
2026-04-20 07:40 -32.62015 152.00607 34025 ft 495 kts 18°
2026-04-20 07:40 -32.58661 152.01672 34292 ft 497 kts 17°
2026-04-20 07:40 -32.55316 152.02736 34569 ft 498 kts 18°
2026-04-20 07:41 -32.51984 152.03795 34872 ft 499 kts 17°
2026-04-20 07:41 -32.48630 152.04858 35257 ft 497 kts 17°
2026-04-20 07:41 -32.45295 152.05913 35673 ft 495 kts 17°
2026-04-20 07:41 -32.41991 152.06958 36007 ft 494 kts 17°
2026-04-20 07:42 -32.38667 152.08012 36250 ft 495 kts 17°
2026-04-20 07:42 -32.35309 152.09073 36487 ft 496 kts 17°
2026-04-20 07:42 -32.31961 152.10129 36747 ft 496 kts 17°
2026-04-20 07:42 -32.28649 152.11173 36995 ft 496 kts 17°
2026-04-20 07:43 -32.25329 152.12221 37193 ft 497 kts 17°
2026-04-20 07:43 -32.21963 152.13283 37223 ft 499 kts 17°
2026-04-20 07:43 -32.15252 152.15395 37228 ft 499 kts 17°
2026-04-20 07:44 -32.08518 152.17508 37227 ft 498 kts 17°
2026-04-20 07:44 -32.01836 152.19601 37226 ft 498 kts 17°
2026-04-20 07:45 -31.95145 152.21701 37224 ft 498 kts 17°
2026-04-20 07:45 -31.88394 152.23813 37219 ft 498 kts 16°
2026-04-20 07:46 -31.81650 152.25919 37227 ft 498 kts 16°
2026-04-20 07:46 -31.74958 152.28006 37231 ft 497 kts 17°
2026-04-20 07:47 -31.68297 152.30078 37232 ft 497 kts 16°
2026-04-20 07:47 -31.61599 152.32163 37228 ft 497 kts 16°
2026-04-20 07:48 -31.54938 152.34230 37227 ft 497 kts 16°
2026-04-20 07:48 -31.48238 152.36307 37225 ft 496 kts 16°
2026-04-20 07:49 -31.44889 152.37344 37005 ft 496 kts 16°
2026-04-20 07:49 -31.41549 152.38379 37153 ft 497 kts 16°
2026-04-20 07:49 -31.34868 152.40443 37218 ft 497 kts 16°
2026-04-20 07:50 -31.28166 152.42511 37223 ft 497 kts 16°
2026-04-20 07:50 -31.21503 152.44565 37226 ft 498 kts 16°
2026-04-20 07:51 -31.14801 152.46626 37224 ft 497 kts 15°
2026-04-20 07:51 -31.08115 152.48680 37216 ft 497 kts 16°
2026-04-20 07:52 -31.01439 152.50731 37213 ft 497 kts 15°
2026-04-20 07:52 -30.94775 152.52769 37211 ft 497 kts 15°
2026-04-20 07:53 -30.88061 152.54826 37206 ft 496 kts 15°
2026-04-20 07:53 -30.81409 152.56857 37204 ft 495 kts 15°
2026-04-20 07:54 -30.74805 152.59155 37201 ft 495 kts 18°
2026-04-20 07:54 -30.68217 152.61557 37198 ft 495 kts 18°
2026-04-20 07:55 -30.61648 152.63943 37199 ft 495 kts 18°
2026-04-20 07:55 -30.55072 152.66327 37202 ft 494 kts 17°
2026-04-20 07:56 -30.48543 152.68686 37204 ft 494 kts 17°
2026-04-20 07:56 -30.41987 152.71054 37201 ft 493 kts 17°
2026-04-20 07:57 -30.35438 152.73412 37203 ft 493 kts 17°
2026-04-20 07:57 -30.28875 152.75777 37203 ft 492 kts 17°
2026-04-20 07:58 -30.22362 152.78116 37207 ft 492 kts 17°
2026-04-20 07:58 -30.15810 152.80469 37206 ft 491 kts 17°
2026-04-20 07:59 -30.09304 152.82800 37201 ft 491 kts 17°
2026-04-20 07:59 -30.02792 152.85129 37201 ft 490 kts 17°
2026-04-20 08:00 -29.96248 152.87471 37200 ft 490 kts 17°
2026-04-20 08:00 -29.89760 152.89786 37189 ft 490 kts 17°
2026-04-20 08:01 -29.83205 152.92123 37184 ft 490 kts 16°
2026-04-20 08:01 -29.76698 152.94440 37184 ft 490 kts 16°
2026-04-20 08:02 -29.70189 152.96755 37185 ft 488 kts 16°
2026-04-20 08:02 -29.63706 152.99052 37182 ft 488 kts 16°
2026-04-20 08:03 -29.57211 153.01355 37184 ft 488 kts 16°
2026-04-20 08:03 -29.50715 153.03656 37179 ft 487 kts 15°
2026-04-20 08:04 -29.44233 153.05946 37175 ft 487 kts 16°
2026-04-20 08:04 -29.37785 153.08223 37173 ft 486 kts 15°
2026-04-20 08:05 -29.31270 153.10422 37169 ft 485 kts 12°
2026-04-20 08:05 -29.24666 153.11835 37164 ft 482 kts
2026-04-20 08:06 -29.18021 153.12532 37167 ft 481 kts
2026-04-20 08:06 -29.11352 153.13170 37159 ft 480 kts
2026-04-20 08:07 -29.08043 153.13492 37024 ft 476 kts
2026-04-20 08:07 -29.04753 153.13814 36055 ft 475 kts
2026-04-20 08:07 -29.01478 153.14130 34719 ft 484 kts
2026-04-20 08:07 -28.98084 153.14459 33217 ft 492 kts
2026-04-20 08:08 -28.94735 153.14793 32131 ft 486 kts
2026-04-20 08:08 -28.91406 153.15129 31764 ft 475 kts
2026-04-20 08:08 -28.88132 153.15456 31368 ft 474 kts
2026-04-20 08:08 -28.84865 153.15781 30957 ft 471 kts
2026-04-20 08:09 -28.81567 153.16106 30516 ft 469 kts
2026-04-20 08:09 -28.78336 153.16425 30050 ft 465 kts
2026-04-20 08:09 -28.75131 153.16742 29588 ft 461 kts
2026-04-20 08:09 -28.71951 153.17055 29138 ft 457 kts
2026-04-20 08:10 -28.68799 153.17366 28697 ft 453 kts
2026-04-20 08:10 -28.65673 153.17676 28255 ft 449 kts
2026-04-20 08:10 -28.62564 153.17981 27812 ft 446 kts
2026-04-20 08:10 -28.59524 153.18280 27374 ft 442 kts
2026-04-20 08:11 -28.56439 153.18582 26942 ft 438 kts
2026-04-20 08:11 -28.53417 153.18880 26500 ft 435 kts
2026-04-20 08:11 -28.50425 153.19173 26063 ft 431 kts
2026-04-20 08:11 -28.47447 153.19466 25611 ft 428 kts
2026-04-20 08:12 -28.44477 153.19756 25161 ft 424 kts
2026-04-20 08:12 -28.41543 153.20044 24712 ft 421 kts
2026-04-20 08:12 -28.38637 153.20328 24279 ft 417 kts
2026-04-20 08:12 -28.35757 153.20610 23843 ft 414 kts
2026-04-20 08:13 -28.32920 153.20888 23407 ft 411 kts
2026-04-20 08:13 -28.30062 153.21167 22972 ft 408 kts
2026-04-20 08:13 -28.27266 153.21439 22539 ft 405 kts
2026-04-20 08:13 -28.24473 153.21712 22103 ft 401 kts
2026-04-20 08:14 -28.21680 153.21982 21673 ft 398 kts
2026-04-20 08:14 -28.18926 153.22327 21237 ft 396 kts
2026-04-20 08:14 -28.16230 153.22783 20800 ft 394 kts
2026-04-20 08:14 -28.13514 153.23261 20352 ft 391 kts
2026-04-20 08:15 -28.10848 153.23729 19917 ft 388 kts
2026-04-20 08:15 -28.08170 153.24197 19482 ft 385 kts
2026-04-20 08:15 -28.05526 153.24660 19057 ft 383 kts
2026-04-20 08:15 -28.02922 153.25110 18629 ft 380 kts
2026-04-20 08:16 -28.00305 153.25563 18200 ft 377 kts
2026-04-20 08:16 -27.97715 153.26012 17770 ft 375 kts
2026-04-20 08:16 -27.95153 153.26454 17345 ft 373 kts
2026-04-20 08:16 -27.92601 153.26895 16917 ft 370 kts
2026-04-20 08:17 -27.90057 153.27335 16500 ft 368 kts
2026-04-20 08:17 -27.87548 153.27768 16078 ft 365 kts
2026-04-20 08:17 -27.85035 153.28201 15658 ft 363 kts
2026-04-20 08:17 -27.82520 153.28636 15231 ft 360 kts
2026-04-20 08:18 -27.80073 153.29057 14825 ft 358 kts
2026-04-20 08:18 -27.77607 153.29485 14410 ft 355 kts
2026-04-20 08:18 -27.75168 153.29904 14001 ft 352 kts